Location: Olomouc
(49.5830°N, 17.2500°E)
Time: 21:09:30
(UTC+02:00)

ISS - Pass Details

Date: 09 May 2021
Orbit: 417 x 422 km, 51.6° (Epoch: 14 June)

Event Time Altitude Azimuth Distance (km) Brightness Sun altitude
Exits shadow 02:01:47 64° 69° (ENE) 470 -3.5 -21.1°
Drops below altitude 10° 02:04:43 10° 72° (ENE) 1,510 -0.5 -20.9°
Sets 02:06:50 0° 73° (ENE) 2,377 0.6 -20.8°
